Theta_e
319 318 316 317 317 317 317 317 317 317 318 318 318 318 319 319 319 320 320 320 321 322 322 323 325 325 325 326 326 325 321 319 314 310 312 313 326 335 336 338 338 335 330 310 308 308 307 308 308 307 310 310 307 308 306 307 304 310 304 302 299 301 299 303 301 301 302 302 301 299 301 303 301 301 303 304 303 304 303 303 306 305 305 308 307 309 311 317
319 317 316 317 317 317 316 316 317 317 317 317 317 318 318 318 319 319 319 320 321 321 322 323 324 325 326 325 325 322 318 316 310 312 313 322 330 334 338 338 338 332 319 311 309 308 307 306 305 307 308 305 308 305 306 306 306 306 302 301 299 301 303 304 304 303 302 303 303 302 301 302 303 303 303 302 302 303 302 304 305 305 308 309 307 309 310 318
317 316 317 317 316 316 315 316 316 317 316 316 317 317 317 317 318 318 318 319 320 321 322 323 324 324 325 325 324 319 315 310 307 304 311 323 332 334 336 338 336 327 319 312 309 309 308 308 307 307 306 304 305 304 307 302 306 300 304 299 300 305 302 300 301 302 300 301 301 301 300 300 301 303 304 301 302 301 302 303 303 304 305 307 309 311 312 318
316 316 316 316 316 315 316 315 315 316 316 317 317 317 317 318 318 318 318 319 320 321 322 323 324 324 324 324 323 318 313 308 302 305 312 323 332 332 334 336 332 323 310 309 308 308 306 306 306 308 306 304 303 304 303 302 304 300 301 299 301 299 302 300 299 300 299 300 302 302 299 300 301 302 303 302 301 302 303 306 305 305 306 308 311 311 314 316
315 316 315 315 315 315 315 315 315 315 317 317 317 317 317 317 318 318 318 319 320 320 321 322 323 324 324 324 320 319 316 299 301 305 316 326 332 331 331 332 321 310 310 307 308 306 308 307 306 306 306 301 303 303 301 302 301 304 299 299 298 298 302 299 299 298 299 296 301 300 300 301 301 301 301 302 301 302 305 307 307 308 308 308 309 313 314 315
316 315 315 315 315 314 315 316 315 315 317 318 317 317 317 317 318 318 319 319 320 320 321 322 323 324 324 323 319 311 306 293 305 313 324 326 330 332 328 325 317 308 310 309 308 307 308 306 307 304 303 302 300 301 301 301 300 300 299 299 299 298 300 299 299 297 297 300 301 300 302 301 301 302 302 302 303 305 304 304 306 306 305 305 310 313 313 315
316 315 314 315 314 315 315 314 314 316 317 317 317 317 317 318 318 319 319 319 320 320 321 322 323 324 323 321 314 309 304 303 306 316 323 326 327 326 324 317 314 309 310 309 307 308 306 305 306 303 302 301 299 301 300 300 300 303 300 299 298 297 299 297 299 295 297 299 301 301 301 301 300 300 299 299 304 306 304 302 304 305 303 303 308 311 313 315
315 314 314 314 314 314 315 314 314 315 316 316 317 317 317 318 318 318 319 319 320 320 321 322 323 322 320 316 313 304 305 304 313 315 320 322 313 309 322 311 310 315 310 307 307 306 307 304 304 302 302 300 300 302 299 301 302 301 300 299 298 297 299 298 297 297 296 298 298 298 300 301 301 300 298 301 304 306 305 304 304 304 303 304 307 310 312 315
314 313 313 313 314 313 313 314 314 315 315 315 316 317 317 318 318 318 318 319 320 320 321 322 322 321 316 309 306 301 301 307 312 316 317 312 308 308 315 314 311 311 307 307 305 308 308 302 302 303 300 300 301 301 299 300 298 302 300 300 299 300 299 298 297 297 298 300 299 300 301 300 299 298 298 303 306 304 304 303 305 305 304 305 307 309 311 314
314 313 314 313 313 313 313 313 314 315 315 315 315 317 317 318 318 318 318 319 319 320 321 322 321 319 307 310 305 298 304 313 317 317 312 308 306 310 312 312 310 310 310 306 307 308 307 304 305 305 306 301 302 300 298 301 299 300 300 301 301 299 300 298 300 300 298 300 299 300 300 299 299 298 300 304 303 300 303 304 304 304 305 306 307 308 310 312
315 313 315 313 313 312 312 313 313 314 315 315 316 317 318 317 317 318 319 319 320 320 321 321 320 313 313 305 301 298 309 318 317 315 310 307 309 312 312 311 309 310 309 308 308 306 306 306 306 305 306 302 303 299 300 300 300 300 300 300 301 300 300 300 300 299 301 300 298 300 300 299 299 299 301 305 302 302 303 304 304 304 306 307 307 307 309 309
315 314 315 313 314 313 313 313 313 314 315 316 317 318 317 317 318 318 319 319 319 320 321 320 318 310 303 305 301 304 303 315 315 311 311 311 311 308 309 307 308 314 312 307 308 309 309 306 307 304 300 303 300 301 300 300 301 299 300 299 300 301 301 300 301 300 298 300 298 300 300 298 299 299 304 300 302 302 303 304 304 305 306 307 308 307 308 308
316 315 316 315 315 314 313 314 314 314 315 316 316 317 317 317 317 318 318 319 320 321 320 320 315 309 306 300 302 306 308 312 314 309 310 311 309 308 307 307 308 308 312 310 308 309 305 307 309 304 303 304 301 299 301 302 299 299 301 300 299 300 299 299 298 298 299 300 297 299 294 300 301 303 304 301 301 302 301 303 305 305 306 306 306 306 307 308
317 316 316 316 316 315 314 314 314 315 315 316 316 317 317 318 318 318 319 319 321 321 321 319 316 308 303 301 308 310 312 315 310 310 311 310 311 312 310 310 310 310 311 307 305 305 306 305 308 304 305 303 300 302 302 302 301 300 298 300 298 296 296 298 299 298 299 299 298 300 295 299 302 303 303 299 299 301 302 304 305 305 305 305 306 306 307 308
317 316 315 315 316 316 314 314 314 314 315 315 316 317 317 317 318 319 320 321 321 320 319 318 312 304 300 300 304 313 317 315 310 312 311 310 310 309 308 310 307 306 306 307 307 304 305 310 309 305 301 299 302 301 299 300 299 297 295 295 296 295 297 298 297 298 299 298 298 300 295 298 302 304 301 299 298 299 301 303 304 304 304 304 305 305 306 307
317 316 315 315 316 316 314 313 314 314 315 315 315 316 317 318 319 319 320 320 320 315 315 319 308 304 299 297 308 321 314 310 310 312 311 310 314 310 311 307 308 308 308 306 305 306 309 309 302 300 302 301 302 301 299 298 299 298 296 296 294 295 297 297 297 296 296 297 298 299 297 299 300 302 300 298 299 299 301 303 304 304 304 304 304 305 305 306
318 317 316 317 316 315 314 314 313 313 314 314 315 316 317 319 319 319 319 318 315 313 318 307 304 302 297 301 308 304 305 310 309 313 311 307 310 309 309 309 307 307 308 307 310 310 308 306 299 302 302 301 300 301 295 294 294 296 296 295 297 294 296 294 296 296 298 297 298 298 295 298 301 302 302 298 300 300 300 302 304 305 305 304 304 304 304 305
317 317 317 317 316 315 314 314 314 314 314 314 315 317 317 319 319 316 318 314 312 311 310 307 307 304 298 300 300 302 305 309 311 306 307 306 307 307 308 306 302 308 309 307 308 306 305 303 303 301 301 300 299 298 293 291 294 294 294 294 294 293 293 295 296 296 296 295 296 298 297 298 301 303 304 305 302 300 301 302 303 304 304 305 304 304 304 305
318 318 318 317 316 316 315 315 315 315 315 316 317 317 317 318 315 316 310 309 301 300 298 300 298 293 294 298 305 307 309 308 309 309 307 308 308 308 308 308 309 306 304 302 301 303 304 304 304 300 296 297 297 298 296 295 295 295 296 295 295 293 295 294 297 296 296 297 296 297 296 298 301 302 304 305 303 301 301 302 302 302 303 303 304 304 305 305
318 318 318 317 317 317 316 316 315 315 315 314 315 313 312 307 306 302 307 304 302 299 299 300 301 300 300 301 307 308 309 309 306 307 310 308 308 308 306 306 308 305 300 299 301 301 301 300 296 296 298 299 300 300 297 295 297 297 297 296 294 294 296 296 295 296 295 296 297 298 299 298 299 301 303 304 304 301 300 300 301 303 303 304 304 304 305 305
318 318 318 317 317 317 316 316 316 315 317 314 313 304 298 301 295 293 299 302 304 300 304 302 301 301 303 305 307 307 305 305 308 308 308 307 306 306 302 304 302 299 300 297 301 300 301 297 297 299 298 299 299 296 296 296 297 296 296 295 294 295 294 297 296 294 296 295 297 298 296 298 299 301 302 303 302 301 302 302 302 303 304 305 305 306 306 306
318 318 318 318 317 317 317 316 316 315 316 315 310 300 306 302 301 302 304 296 301 302 303 304 302 304 304 305 307 306 308 304 305 306 310 307 306 302 300 302 298 297 298 299 300 298 297 295 298 299 296 297 296 296 297 297 296 296 295 295 294 295 297 297 294 294 295 295 295 298 296 297 299 300 302 302 302 303 304 304 304 305 305 305 305 306 306 307
318 318 318 318 317 317 317 317 316 316 314 311 307 303 307 311 309 308 306 302 301 300 303 302 300 302 303 304 306 305 303 301 300 305 307 308 302 302 301 299 298 298 297 299 296 296 293 296 300 296 298 296 294 295 296 296 297 296 295 293 293 296 292 292 295 294 294 295 295 296 293 296 299 300 301 303 303 303 305 304 304 304 303 304 305 307 307 306
318 318 318 318 318 318 318 317 317 314 311 310 306 308 310 308 308 310 308 296 295 297 301 303 302 302 303 301 307 306 302 300 301 302 308 305 302 302 301 300 297 297 296 297 297 296 294 297 294 297 297 298 295 294 295 295 294 297 297 296 295 294 295 293 294 295 294 293 292 294 294 296 298 298 299 301 302 301 302 303 303 304 305 305 306 307 306 305
318 318 318 318 318 318 317 317 311 309 311 309 308 313 309 309 311 309 303 293 293 295 302 301 303 304 304 309 307 304 302 300 302 305 308 306 299 300 300 299 299 295 297 297 296 296 296 296 296 295 296 296 295 293 295 297 294 295 297 297 297 297 295 293 294 295 295 295 293 293 290 293 294 296 298 302 301 300 302 301 303 304 304 305 303 303 305 306
318 318 318 318 318 318 318 309 308 310 307 306 310 313 310 309 309 308 300 289 288 294 297 295 305 299 312 303 307 305 301 298 302 304 306 306 308 302 298 298 297 295 296 296 296 297 296 294 298 296 295 296 296 295 296 297 295 293 294 297 297 296 295 295 294 294 290 289 293 293 289 287 295 296 299 300 300 301 303 302 303 304 305 305 305 305 305 305
318 318 318 318 318 318 308 304 312 310 303 306 313 314 311 311 312 309 295 289 285 297 294 298 298 299 309 303 305 299 290 294 303 305 305 305 303 304 299 297 296 296 297 298 293 292 295 293 294 297 296 296 294 293 295 296 295 292 293 293 294 295 294 295 295 295 293 295 296 292 294 289 289 296 299 300 299 300 301 303 304 305 306 306 306 306 306 305
318 318 318 318 318 315 310 310 308 304 304 310 312 314 314 313 311 304 295 281 281 301 295 293 299 307 306 303 303 297 295 300 297 300 303 304 303 302 299 297 296 296 295 296 288 297 295 294 295 294 296 294 295 296 298 298 296 294 291 295 295 296 297 295 295 294 293 290 289 291 296 289 290 295 296 297 296 298 300 302 304 306 308 307 306 306 305 305
318 318 317 318 318 315 313 310 308 305 311 311 312 313 313 312 306 298 289 280 295 294 309 295 308 304 300 301 297 296 297 298 295 299 304 303 304 301 297 298 298 298 296 297 294 294 293 296 297 298 296 294 294 290 294 298 295 291 293 294 294 295 294 295 294 294 292 289 287 290 294 287 289 297 295 295 295 297 300 302 304 306 307 308 306 305 304 301
319 318 318 318 317 313 312 312 309 311 311 311 313 312 313 307 298 289 281 277 300 289 296 298 298 295 299 295 294 296 295 296 297 300 302 300 302 302 296 300 298 297 296 296 296 294 293 295 295 296 296 296 292 291 291 295 294 295 297 297 295 295 295 294 294 293 291 285 289 292 294 291 285 294 295 294 297 299 301 302 304 306 307 307 305 303 302 301
318 319 318 317 312 312 312 306 310 312 312 312 313 312 308 304 291 284 276 287 297 296 295 294 293 299 295 293 291 293 296 295 297 300 297 300 298 299 298 297 300 297 294 295 295 295 295 294 296 296 293 293 296 293 294 292 295 297 297 296 295 293 293 293 291 291 286 285 289 288 293 294 284 290 296 300 298 297 301 302 302 305 306 308 304 302 300 299
318 318 319 317 316 315 308 307 312 312 312 313 312 306 299 288 292 281 281 293 287 293 294 292 294 295 294 296 295 293 293 295 297 297 296 296 296 294 295 293 294 288 288 290 290 293 292 295 296 294 295 296 297 295 293 295 294 296 296 295 288 287 286 284 288 283 285 284 287 287 289 287 287 293 298 299 299 300 300 301 304 306 306 307 303 303 301 300
317 317 318 318 315 312 314 315 314 312 313 313 309 305 292 286 278 286 287 291 287 297 292 297 293 293 295 293 292 293 295 293 296 296 297 297 296 296 299 297 298 295 287 292 291 289 292 295 293 296 295 296 299 293 291 290 293 294 293 291 287 283 282 280 283 282 282 287 287 287 291 285 292 295 299 298 301 302 302 302 304 305 305 306 305 303 300 302
317 317 315 316 316 315 315 314 313 313 311 310 303 296 291 282 282 294 290 291 292 292 295 293 292 294 294 291 293 294 290 294 295 295 296 294 294 293 295 296 295 293 293 290 289 289 285 285 291 293 292 299 297 297 297 295 293 293 300 295 290 288 284 279 282 280 283 286 285 288 285 285 287 294 299 301 302 303 303 303 303 304 304 305 304 301 299 299
316 316 317 316 315 316 313 313 313 313 311 306 297 290 283 282 289 289 289 292 293 294 292 295 293 291 290 291 292 294 295 290 295 294 293 293 291 293 293 293 296 296 295 289 291 289 289 289 293 297 295 297 296 298 299 297 294 295 295 296 290 288 291 284 286 285 283 285 285 283 286 293 293 298 299 299 298 299 299 299 300 301 302 303 303 302 301 301
312 311 315 312 312 314 313 314 313 313 308 300 291 286 285 289 287 295 294 298 296 294 292 294 294 290 289 290 291 292 295 293 292 294 292 294 296 293 297 296 295 295 292 289 293 286 286 286 291 294 293 295 296 296 296 297 287 293 293 289 292 294 293 287 282 282 281 283 282 289 288 292 297 297 298 300 299 299 298 298 299 300 301 303 303 305 304 304
309 310 306 310 312 314 314 314 313 310 305 297 289 284 291 294 301 300 299 295 297 297 293 289 289 290 288 287 290 289 292 296 293 293 289 294 291 294 294 296 299 297 297 296 290 297 289 289 289 292 291 293 292 293 298 295 297 292 288 292 293 297 297 290 284 284 284 281 283 286 285 288 289 286 297 297 297 299 299 300 301 301 302 301 303 304 305 306
309 308 308 308 312 314 314 314 312 308 301 294 286 290 297 294 301 301 298 298 296 298 294 291 293 296 290 290 289 290 293 291 291 292 291 292 290 300 295 295 298 298 298 299 294 294 295 287 289 288 290 294 294 296 296 296 295 295 293 302 292 287 285 290 287 280 280 279 282 287 287 287 290 291 295 295 294 297 299 301 300 300 302 302 303 304 305 304
310 307 301 309 314 314 313 314 310 304 297 288 287 287 293 296 303 300 297 299 300 297 293 294 293 294 295 290 293 292 292 288 292 290 289 291 288 297 296 298 296 299 299 298 293 294 295 287 288 289 291 293 294 295 288 291 295 296 295 293 296 293 290 286 287 287 287 282 280 283 286 286 296 294 297 297 298 300 301 301 300 301 302 303 303 305 306 306
304 302 300 312 314 314 314 312 305 301 293 285 287 288 299 294 298 302 299 298 297 296 294 295 297 293 293 294 294 290 293 293 292 292 292 294 291 297 296 299 297 297 299 299 296 299 292 292 285 289 291 292 288 292 290 293 289 290 292 291 291 290 293 293 291 287 286 284 283 282 282 288 297 300 298 299 300 301 301 302 304 303 303 304 304 305 306 306
306 300 302 312 314 314 312 306 298 293 289 289 291 291 295 293 297 298 301 300 300 302 297 297 296 293 294 292 291 296 292 292 293 291 292 293 292 290 297 298 299 295 298 297 296 296 289 288 286 288 288 287 292 296 296 297 296 293 292 290 292 289 287 284 283 289 286 286 283 283 282 290 299 298 301 301 302 303 304 305 305 304 303 303 303 303 304 306
300 291 298 312 314 313 305 295 295 297 289 287 287 291 291 299 296 298 298 299 298 298 303 299 299 298 296 294 295 293 293 291 292 292 293 292 295 295 298 300 298 298 295 292 293 298 296 291 289 286 289 290 293 291 289 290 293 294 294 293 296 294 293 288 283 285 285 287 286 286 283 287 300 298 301 301 301 302 303 302 303 304 303 302 303 303 303 303
297 295 307 310 313 310 301 294 296 293 287 290 297 295 297 297 296 298 296 297 295 298 298 298 298 296 297 297 297 294 295 292 293 291 294 294 295 297 300 298 300 299 300 296 298 292 294 289 287 289 292 292 292 292 292 291 293 292 293 292 293 292 293 292 290 289 288 287 285 286 282 288 296 293 295 295 294 295 295 298 302 302 302 301 301 301 301 301
299 298 302 310 313 309 298 289 288 289 288 290 293 293 297 296 296 295 295 297 295 296 295 297 298 300 297 299 296 293 296 289 295 294 293 297 294 300 299 299 300 297 298 295 294 298 289 289 290 286 285 288 289 292 292 293 293 291 292 293 295 296 296 289 287 290 288 288 288 287 282 288 295 290 294 293 294 295 296 296 297 300 302 302 301 301 300 300
299 303 303 304 308 305 294 297 294 291 289 287 288 287 291 293 297 297 298 296 298 297 297 295 298 299 297 297 296 297 296 294 290 295 297 296 296 295 294 300 300 298 296 303 297 300 291 290 288 283 281 279 279 280 283 285 288 291 291 293 294 294 294 289 287 288 285 288 288 287 287 294 295 293 296 295 296 297 298 298 295 297 301 302 301 300 299 298
293 285 296 299 300 300 300 303 298 294 291 289 286 288 291 289 295 298 299 297 299 298 298 298 298 300 296 294 293 292 292 295 293 291 292 293 296 295 296 298 299 300 298 296 297 298 289 290 290 289 287 286 288 290 295 295 291 287 290 291 292 294 295 293 292 288 286 288 288 289 290 292 295 295 294 292 293 298 300 298 297 297 297 299 299 299 299 298
298 289 292 287 297 296 295 299 296 296 291 294 286 290 287 290 293 294 299 293 298 298 297 297 297 295 294 295 293 293 294 293 295 293 292 294 296 296 295 296 298 298 295 296 297 293 288 289 292 292 291 293 293 291 294 295 290 291 291 290 293 292 292 290 288 287 292 289 285 292 294 290 292 296 298 298 297 297 299 300 300 301 302 302 300 298 295 295
287 292 295 299 291 287 289 291 296 295 297 295 289 294 290 289 291 289 295 297 299 299 294 295 296 297 296 294 294 290 293 292 292 290 294 293 294 294 297 295 294 295 295 298 297 294 289 288 292 292 292 294 295 296 295 296 295 294 293 293 291 292 291 287 289 293 293 288 287 293 295 291 294 297 299 300 300 299 300 301 302 303 302 301 298 297 296 296
296 294 294 298 291 293 293 295 296 295 294 294 292 292 289 291 289 293 294 293 294 293 296 288 292 296 297 298 295 290 292 287 287 293 291 291 290 291 291 294 296 297 296 292 290 291 291 289 292 293 290 292 294 295 295 294 294 293 294 294 294 293 292 292 292 293 294 292 295 295 295 295 298 299 300 302 303 302 302 303 302 300 300 301 299 298 298 298
289 290 289 294 294 292 292 293 294 292 290 293 289 291 292 292 291 293 296 294 289 292 297 292 293 296 297 296 295 292 294 295 294 290 295 295 289 291 290 292 288 286 289 290 291 291 290 288 293 289 288 288 292 293 292 292 291 289 291 293 294 294 293 293 293 294 294 294 295 295 294 294 299 302 302 303 302 303 303 300 300 301 302 301 301 300 299 300
296 297 298 291 288 290 292 292 292 291 289 290 288 290 292 293 292 295 294 298 294 291 295 292 295 296 296 295 295 295 298 298 298 297 297 296 292 294 293 290 293 286 287 287 288 289 290 287 289 289 287 286 290 290 289 289 288 287 288 290 291 291 290 291 290 293 292 290 293 292 290 292 298 302 302 302 300 300 300 301 301 301 301 301 301 301 301 301
298 299 298 295 287 292 289 291 291 291 286 290 290 291 291 291 294 296 291 297 298 298 297 296 297 296 293 293 293 296 299 300 300 300 300 300 300 295 297 295 292 290 287 288 290 288 288 288 287 288 285 286 289 290 287 285 286 284 286 289 292 293 294 294 294 295 295 296 291 289 290 297 299 300 300 300 299 299 300 301 302 302 303 303 302 302 302 303
Wind_Speed
9 8 6 7 6 6 5 4 3 3 3 3 3 4 5 5 5 5 6 6 6 7 8 8 9 9 9 9 9 8 7 3 2 1 3 2 3 8 9 8 8 9 3 3 4 4 2 2 4 2 1 2 3 0 1 2 3 2 4 2 4 2 7 6 8 9 4 4 8 8 9 7 6 4 3 2 3 1 2 5 3 3 6 4 4 3 4 6
10 8 7 8 7 6 5 4 3 3 3 3 3 4 4 5 5 6 7 7 7 8 9 9 10 10 10 10 9 7 4 3 5 6 3 2 6 8 9 8 8 7 4 3 4 4 4 3 3 1 3 2 2 2 2 2 3 0 2 2 3 4 1 2 2 5 1 1 8 7 5 5 3 9 5 6 6 5 6 6 5 7 7 7 5 5 6 9
8 7 8 8 7 6 5 4 3 4 3 2 2 3 3 4 4 5 7 8 8 8 9 10 10 11 11 10 9 5 3 2 3 2 1 1 6 8 8 8 8 5 5 1 0 2 1 3 4 3 3 4 5 3 1 3 3 2 3 4 2 1 3 1 2 6 2 1 8 7 5 4 1 3 5 5 4 3 9 8 6 8 11 11 9 8 8 11
8 9 8 7 7 6 6 5 4 3 2 3 2 3 3 3 5 5 6 8 9 9 10 10 11 11 11 11 8 4 3 3 2 1 1 4 7 6 7 8 7 5 1 6 2 3 4 6 4 1 3 4 2 2 1 3 3 2 3 2 1 2 2 3 2 2 1 3 4 5 4 4 3 2 6 4 4 9 9 11 10 11 12 8 10 10 9 11
7 8 8 7 7 6 5 5 4 3 3 2 3 3 3 4 5 6 7 8 9 10 10 11 11 11 11 10 7 3 2 3 4 1 3 5 6 6 7 7 5 2 2 6 6 5 2 2 2 3 2 4 1 2 4 1 3 2 3 4 2 1 1 3 1 3 0 2 3 4 8 6 5 2 6 6 10 8 8 9 10 11 5 3 10 10 9 10
8 8 8 7 7 6 5 5 4 3 3 4 3 3 3 4 5 7 7 8 9 9 10 11 12 12 11 9 2 2 3 4 1 1 3 6 6 6 5 1 1 3 3 2 1 2 2 3 3 2 2 2 2 2 2 1 3 3 1 1 1 2 2 2 1 1 3 3 6 7 3 4 7 3 2 7 14 1 5 5 2 2 3 3 3 10 10 11
9 8 7 7 7 6 5 4 4 3 4 3 3 3 4 4 6 7 7 8 8 9 10 10 11 12 12 4 2 3 1 3 1 1 5 8 7 4 2 0 1 1 3 3 0 2 1 4 2 3 4 4 2 5 2 1 1 3 5 4 2 1 2 1 1 3 2 3 4 2 2 5 4 9 2 8 13 7 3 2 1 2 1 1 6 10 12 12
9 7 6 5 7 6 5 4 4 3 3 1 3 3 4 4 5 6 7 8 8 8 9 10 10 11 9 2 1 2 1 2 3 1 5 6 4 4 6 1 2 2 6 3 1 5 3 2 6 3 3 2 3 3 1 3 2 3 5 3 3 1 1 1 1 3 1 1 1 2 6 4 4 2 2 10 13 11 5 2 1 0 1 3 6 8 10 10
9 5 7 6 5 3 3 4 4 4 2 1 0 2 3 4 4 6 7 7 8 8 9 9 10 10 2 2 3 4 3 2 2 4 5 5 4 3 3 2 3 4 5 2 3 2 4 1 3 4 3 6 2 6 1 3 4 2 3 4 3 2 2 3 3 2 1 1 2 5 4 1 1 0 8 16 11 2 2 2 1 1 4 6 8 9 9 10
11 9 8 8 7 6 5 4 4 3 2 1 1 2 2 3 4 6 7 7 7 7 8 9 10 8 2 2 3 6 2 3 2 3 4 3 3 1 5 2 1 5 2 3 2 1 1 5 1 6 11 7 2 3 3 3 3 2 5 3 4 3 1 1 1 2 0 0 1 4 2 1 1 1 8 3 3 3 2 4 1 3 7 7 6 6 7 8
12 12 10 9 8 7 7 5 5 4 3 1 2 3 2 3 4 6 7 7 7 7 8 8 10 5 1 1 6 3 0 0 2 3 3 2 2 1 3 2 2 3 8 4 5 2 3 7 3 4 1 4 6 3 1 4 2 3 4 5 5 3 2 2 1 2 2 2 1 2 2 2 1 1 10 3 2 1 3 4 4 5 7 6 7 5 5 6
12 13 13 12 11 8 8 6 6 5 3 2 2 2 3 3 5 6 7 7 6 6 7 7 7 2 1 1 3 2 2 3 3 2 1 2 4 2 2 2 3 3 2 5 4 1 2 6 4 0 3 4 4 4 5 2 1 3 3 4 2 2 4 2 2 1 2 2 1 1 3 7 7 11 7 4 1 1 2 5 5 7 7 6 5 5 6 8
13 13 13 11 11 8 7 7 6 5 4 3 2 2 3 4 5 7 7 7 6 6 6 6 4 2 1 4 2 1 2 2 0 1 6 5 5 3 4 3 4 5 3 6 4 1 2 3 2 11 3 1 5 1 6 2 2 3 4 2 2 3 5 3 0 0 3 1 1 2 6 4 11 19 5 4 2 1 4 7 7 6 6 5 5 6 7 7
12 13 11 12 12 9 7 7 6 5 5 3 3 3 4 6 7 6 6 7 8 7 6 6 2 2 2 2 2 1 1 1 1 2 3 3 1 4 4 4 5 6 6 11 5 2 1 2 7 11 3 3 4 3 6 3 1 3 1 2 1 2 2 3 0 2 6 3 2 2 7 5 2 3 2 3 1 6 10 10 7 6 6 5 6 6 8 9
10 10 10 10 11 11 7 7 6 6 5 5 4 5 6 7 7 6 7 7 6 6 5 4 2 2 3 2 1 2 1 2 2 2 3 1 8 5 5 5 10 9 6 6 4 1 0 1 3 4 4 2 4 5 5 2 3 2 3 3 2 3 2 3 2 3 5 3 1 4 8 10 9 6 5 2 1 2 7 9 8 7 6 6 6 8 9 9
12 11 10 10 9 9 7 7 7 6 6 6 6 7 8 8 6 7 7 7 5 3 1 3 1 2 4 4 2 2 1 3 4 3 2 2 4 5 2 6 4 5 2 6 2 1 3 9 8 1 4 1 4 4 4 3 2 2 3 1 2 1 1 4 3 1 2 1 1 9 6 3 3 0 1 2 2 1 5 9 9 9 9 8 8 7 8 8
12 12 11 9 9 7 8 8 6 6 6 6 6 8 8 6 6 7 6 4 3 1 1 1 1 1 3 2 1 3 3 1 2 0 1 3 2 8 6 4 4 6 5 4 3 1 7 4 2 1 3 2 1 3 3 2 2 3 2 3 1 3 1 2 4 2 1 3 6 7 6 12 6 1 3 3 3 2 6 10 11 9 6 7 6 8 9 10
12 12 11 10 10 9 9 8 8 7 6 6 6 5 6 7 5 3 3 1 1 1 2 1 2 2 2 2 4 3 2 1 1 1 3 2 1 3 2 4 1 4 3 5 5 3 4 2 3 2 3 3 3 5 4 3 4 3 4 3 3 2 6 6 3 3 3 1 6 6 12 16 15 13 10 10 6 6 10 11 13 12 9 7 7 8 10 10
13 12 12 11 10 9 7 7 7 5 5 4 6 7 6 4 1 1 3 1 2 4 3 5 6 8 3 7 4 3 0 2 1 2 4 3 2 2 6 4 4 7 3 2 2 1 2 3 0 3 6 5 8 8 6 3 3 3 5 2 0 3 4 4 3 2 3 5 7 10 11 14 14 11 11 11 6 8 11 12 11 11 10 10 10 10 10 10
14 13 13 12 11 9 9 7 6 5 1 3 1 2 2 3 2 3 1 0 4 1 2 1 3 4 4 1 5 2 2 2 4 3 1 1 2 6 6 2 4 4 4 4 3 3 3 4 5 5 7 9 8 5 4 4 4 7 4 2 1 3 8 1 2 2 1 3 12 13 13 16 18 15 15 14 5 6 11 14 13 12 10 10 10 12 13 12
15 14 13 12 11 10 10 9 5 3 4 1 1 2 4 5 6 3 4 4 3 1 4 2 3 2 3 4 3 7 6 2 4 2 2 2 5 7 2 2 5 5 2 3 2 1 2 5 6 9 3 2 5 7 8 7 2 3 3 2 3 3 7 2 2 2 2 4 6 3 6 13 16 13 14 13 10 16 15 15 16 16 13 10 13 15 13 12
15 14 13 13 12 11 10 7 6 1 3 1 2 3 2 2 1 2 2 3 3 1 1 2 2 2 1 1 1 2 2 4 3 3 2 2 4 7 4 5 7 8 3 4 4 3 5 7 8 3 7 7 7 5 4 4 5 3 3 2 2 5 6 6 2 2 3 4 10 10 11 13 15 15 16 16 16 15 16 16 17 14 12 12 13 15 13 8
15 14 14 13 13 12 10 8 5 5 1 2 3 1 3 1 3 2 1 4 3 2 3 2 3 4 2 2 1 2 4 4 6 7 6 3 4 3 8 7 8 4 4 7 8 5 4 6 6 8 6 9 5 3 5 4 2 4 4 4 5 1 1 3 4 3 5 5 5 4 12 13 14 16 21 21 15 14 14 15 15 11 14 18 19 13 8 12
16 15 14 13 13 13 12 8 5 4 4 4 2 5 2 1 1 1 1 1 1 2 3 2 3 3 5 5 6 6 5 3 3 11 2 6 9 3 6 6 7 5 8 11 12 10 6 4 2 7 7 8 7 5 7 6 6 3 5 6 4 3 5 5 4 4 5 1 1 9 12 12 10 12 10 7 7 10 17 13 14 14 15 18 14 11 13 14
17 16 15 13 13 13 11 9 4 3 3 1 5 4 3 2 1 2 1 1 1 1 1 2 3 5 4 3 2 8 1 2 4 2 5 6 8 6 4 2 3 7 7 5 1 4 6 3 6 7 5 4 7 6 8 7 5 4 6 9 8 6 5 1 3 8 6 3 3 3 8 3 1 6 6 4 3 8 8 6 12 13 13 12 13 16 13 11
17 17 16 15 14 13 12 5 5 5 5 5 4 2 5 4 1 2 0 3 4 2 3 5 6 3 5 4 5 3 6 6 2 1 4 2 3 2 4 3 1 8 8 7 6 3 1 3 5 7 7 5 4 4 4 6 5 3 2 7 11 2 1 1 1 2 4 4 2 4 3 9 3 6 3 3 6 13 5 7 12 12 10 8 9 9 8 8
18 17 18 17 16 15 7 4 5 8 4 5 4 4 4 4 2 3 2 0 7 7 8 2 0 1 2 5 8 5 7 6 2 5 4 3 4 3 6 6 3 5 3 4 2 7 5 3 4 4 7 6 6 5 7 11 5 3 2 1 3 4 6 4 3 5 6 4 5 5 5 8 13 7 10 10 11 14 12 13 14 12 12 10 8 8 8 6
19 19 18 19 20 19 0 7 10 7 4 2 1 4 4 3 2 1 2 1 5 5 4 3 1 3 0 4 3 5 3 5 7 4 3 1 1 3 3 9 10 10 6 6 10 2 6 7 7 7 5 4 8 2 4 11 5 1 1 1 4 4 3 4 3 2 1 6 8 6 5 3 10 2 3 3 7 10 13 13 13 13 9 5 6 5 4 4
19 20 20 19 21 12 5 6 8 7 1 2 3 4 3 5 2 2 2 5 1 3 2 6 3 1 3 1 4 3 2 5 1 4 3 2 6 1 7 7 2 5 2 4 6 2 2 1 6 5 7 8 3 3 2 9 6 1 5 6 7 6 5 1 2 0 2 2 10 8 9 3 16 5 6 2 3 9 10 10 12 11 9 3 4 3 2 1
20 20 21 20 15 5 2 2 5 1 3 5 6 6 5 3 2 5 4 8 3 4 3 3 3 7 8 14 5 3 3 2 2 4 3 4 3 2 5 1 4 5 4 1 2 3 1 1 3 3 6 2 6 5 2 4 5 11 6 8 4 5 2 2 2 1 1 5 7 14 14 7 11 5 8 8 7 7 7 6 7 9 9 6 1 1 1 2
19 21 21 22 11 7 6 3 4 4 4 5 7 6 4 2 3 5 7 5 4 3 2 3 3 5 14 15 8 1 3 1 4 9 6 2 3 4 5 5 3 3 1 2 5 1 1 2 3 0 3 4 5 8 7 3 5 6 3 3 4 2 2 1 1 1 3 10 2 3 9 9 11 4 5 3 1 4 6 6 8 8 8 2 1 2 1 1
17 21 23 17 8 9 11 6 7 6 5 7 7 5 4 4 4 6 6 7 4 8 8 6 2 7 12 2 3 9 8 3 3 7 10 10 10 10 10 11 8 4 5 10 5 5 4 5 2 2 3 4 6 9 5 3 2 2 5 6 5 3 1 3 2 4 8 8 3 3 2 5 18 14 5 5 7 9 10 8 7 8 8 3 3 1 0 0
11 19 24 16 12 9 6 2 9 8 9 6 5 2 4 3 8 9 7 8 3 4 4 4 7 8 12 8 6 5 4 7 4 3 4 1 6 9 4 5 11 4 9 7 5 4 3 3 1 4 2 6 7 9 5 3 7 6 10 9 6 5 4 7 2 2 5 6 1 1 3 10 7 8 18 24 18 14 8 10 10 10 11 9 3 2 1 1
3 13 13 14 12 11 7 9 9 13 11 6 7 3 2 7 12 11 11 5 1 3 5 4 7 4 9 8 7 12 7 1 10 5 5 7 7 9 9 9 5 3 3 3 10 9 5 5 9 11 6 9 10 9 9 5 12 12 1 9 6 6 4 4 3 6 6 2 1 3 1 5 2 1 1 12 13 8 5 6 8 10 11 11 2 2 4 5
3 6 9 8 10 9 9 10 10 12 10 11 8 11 13 13 13 13 13 8 2 2 4 2 10 8 5 3 3 5 3 5 4 7 5 8 9 8 10 13 10 4 2 6 4 2 11 4 3 6 3 11 12 1 5 7 4 2 1 4 2 8 4 8 2 1 2 3 3 4 7 2 6 4 4 3 5 8 4 6 8 12 12 10 9 8 6 6
4 1 4 3 5 7 9 9 11 10 11 8 11 13 16 14 15 12 7 9 4 8 8 6 5 6 2 3 4 8 2 1 6 3 2 7 1 8 9 4 11 17 9 11 5 5 4 6 3 1 2 6 3 1 2 2 8 7 6 7 4 5 4 2 2 3 1 1 12 2 9 8 8 12 14 14 11 9 3 7 7 12 13 8 10 8 4 5
2 2 2 3 5 7 9 10 11 10 10 8 12 14 15 14 4 5 4 13 8 17 11 11 8 8 10 8 6 8 6 5 5 7 7 4 6 10 7 9 4 10 15 6 2 3 4 2 2 2 7 1 2 3 3 5 1 9 6 7 3 1 4 3 7 1 3 7 6 2 10 12 3 11 4 4 9 10 10 12 13 12 9 7 9 6 7 6
4 2 2 4 7 12 9 9 12 10 11 12 13 16 3 11 2 2 1 7 8 12 8 12 4 8 7 9 9 10 6 6 8 6 6 11 6 9 10 4 10 15 18 2 5 2 2 6 3 3 4 2 1 2 2 3 5 2 0 4 8 4 5 5 1 6 4 5 6 5 6 12 12 14 3 6 8 10 12 13 13 14 13 11 8 8 6 5
2 2 3 6 10 12 13 13 9 11 10 9 11 12 5 8 3 1 1 2 2 12 12 11 9 7 6 10 5 8 14 11 12 11 7 6 8 8 16 10 8 14 14 10 4 2 2 7 2 2 2 2 1 6 11 7 1 2 2 3 4 3 3 7 6 1 1 6 0 6 1 15 8 9 10 13 13 11 11 9 11 16 14 10 8 6 5 4
3 2 4 3 12 12 12 13 9 10 10 14 14 10 3 6 2 1 2 1 4 8 10 10 9 5 7 7 12 9 10 6 12 11 10 7 11 3 10 14 6 8 13 16 7 3 5 2 7 4 4 2 6 9 12 13 11 5 7 8 4 1 4 3 1 2 3 2 3 4 11 13 6 10 9 10 12 12 14 12 10 7 7 9 8 6 5 5
2 2 1 3 10 11 12 9 10 12 10 2 5 10 6 6 4 10 2 2 3 4 1 4 9 11 8 7 6 5 8 9 8 8 9 8 11 5 10 10 7 8 7 8 10 6 3 5 7 6 4 10 5 1 3 10 14 14 16 15 16 11 7 6 6 3 1 3 5 3 12 16 3 5 9 8 9 11 12 10 7 6 8 7 7 8 6 5
4 5 3 9 12 17 12 12 4 6 2 9 11 7 6 2 3 5 5 1 4 2 3 1 3 6 7 10 9 7 6 7 8 8 8 10 13 10 2 12 11 16 15 11 15 13 7 2 3 6 8 8 3 2 1 4 5 3 2 6 10 10 9 6 7 5 0 4 3 2 4 20 3 4 5 5 6 8 6 6 6 5 5 4 4 5 5 4
6 5 3 10 14 15 7 9 6 7 3 3 5 1 3 3 6 2 7 6 5 3 1 2 5 6 5 5 5 6 12 6 13 11 7 10 9 13 4 13 10 14 9 2 6 3 5 3 3 7 3 1 1 1 2 2 2 3 3 1 5 11 10 9 5 3 8 4 5 5 4 18 3 4 1 2 2 3 1 4 7 5 3 5 6 6 6 4
4 5 0 4 14 13 12 10 8 10 6 2 6 6 7 4 6 7 8 10 9 5 6 4 2 4 1 3 4 9 11 6 9 11 8 6 5 4 10 7 16 10 11 10 9 11 5 3 7 5 3 2 3 1 4 3 3 5 4 6 10 11 11 1 3 0 5 11 14 8 13 18 1 0 2 1 1 3 5 6 6 6 6 4 6 6 4 3
1 1 2 2 11 13 13 8 9 9 9 9 8 9 8 8 6 10 7 7 4 3 3 7 6 1 2 1 4 3 10 16 5 12 12 7 5 3 4 9 17 11 8 2 3 13 8 9 10 10 11 11 9 11 14 9 11 8 4 11 11 14 13 6 8 6 8 12 17 10 13 21 2 0 4 2 2 3 5 3 2 6 7 8 4 3 4 4
5 5 5 5 2 9 9 1 0 8 12 9 7 7 9 7 4 5 8 7 6 4 5 1 0 2 2 2 2 4 7 9 12 2 8 5 4 2 2 6 11 11 10 8 8 12 3 3 12 16 16 16 14 4 6 13 8 9 11 13 14 15 16 14 5 8 14 17 9 14 21 24 18 7 5 4 2 6 7 5 6 9 10 8 4 3 5 6
2 7 6 8 2 7 6 11 8 5 8 12 9 9 11 16 8 3 9 4 7 10 5 9 4 6 5 4 5 6 5 8 8 5 5 6 2 1 2 4 5 11 7 4 6 5 2 4 14 19 22 20 14 9 8 17 15 18 17 15 17 16 18 16 15 19 21 8 15 16 20 17 27 18 9 7 7 6 5 4 7 9 8 6 8 7 7 6
7 4 7 2 4 6 11 9 12 12 9 13 5 7 13 14 11 7 6 11 2 7 7 0 10 12 11 15 12 7 7 9 6 8 10 5 3 1 0 2 6 8 7 4 7 8 5 9 11 13 17 20 18 17 12 10 14 15 18 17 19 20 18 19 23 25 21 13 19 21 17 20 24 24 15 12 8 9 11 10 12 7 1 3 5 7 8 10
5 3 2 1 5 2 7 2 12 11 13 14 7 10 9 13 16 14 8 8 6 3 11 6 13 18 16 13 9 9 9 5 7 8 7 5 8 3 2 2 6 4 4 2 0 1 3 9 10 13 16 18 18 16 9 14 8 5 11 16 18 21 23 26 26 24 22 18 17 20 24 22 19 23 8 9 8 10 8 9 3 2 10 9 6 8 9 9
9 7 4 1 1 1 2 3 5 8 8 10 10 12 12 14 16 12 8 8 8 10 10 15 15 11 14 14 12 10 13 14 10 9 11 13 4 6 6 6 3 4 3 1 2 6 2 10 9 2 6 12 19 15 7 12 8 8 3 6 10 16 22 27 21 15 18 20 19 25 26 22 22 12 10 9 5 6 7 9 10 10 8 9 11 10 10 10
2 1 1 3 7 4 4 3 4 7 6 6 7 4 10 13 15 13 11 12 14 11 12 19 20 13 10 11 13 16 16 14 15 13 4 9 12 5 8 2 5 4 4 5 3 2 3 3 4 3 8 12 14 13 6 3 4 6 5 10 15 19 22 15 9 14 16 22 24 19 18 20 21 4 15 12 7 10 13 11 8 9 12 13 13 11 11 11
3 2 1 1 5 5 8 5 4 4 7 7 7 7 7 11 9 10 7 6 11 12 14 19 17 11 9 12 16 20 19 12 9 5 5 2 1 3 3 3 7 7 6 6 2 4 5 4 4 4 11 13 18 9 6 6 1 6 15 20 26 22 8 7 16 20 22 20 16 15 20 22 17 16 17 9 6 8 10 10 14 18 18 13 14 13 13 11
Wind_Direction
171 161 161 160 145 140 136 126 111 88 74 52 35 27 23 11 2 356 340 342 340 336 331 334 330 331 334 333 336 337 320 199 171 234 129 54 320 306 302 300 297 306 173 203 157 185 132 89 119 323 141 34 358 156 317 52 2 256 187 186 196 80 195 158 191 187 18 181 164 178 191 194 181 165 146 176 179 302 131 223 184 234 238 241 103 99 103 130
186 163 168 162 149 141 140 138 139 115 76 49 36 21 11 2 352 341 344 338 342 336 333 331 332 330 330 332 334 330 304 189 101 84 39 25 315 311 306 298 304 317 185 221 169 191 164 116 84 173 158 103 281 56 254 72 310 112 104 232 235 167 97 186 170 147 186 130 165 164 176 233 189 163 157 210 187 193 222 223 210 241 230 185 172 156 162 155
140 162 172 164 156 152 148 146 126 97 82 65 51 31 16 0 347 342 340 337 337 336 332 329 331 329 329 331 329 317 271 101 162 78 97 13 318 310 306 305 303 329 219 282 157 146 201 133 142 141 36 119 359 105 279 44 313 48 242 200 230 151 69 230 156 150 328 296 153 160 167 235 85 185 119 229 177 176 225 217 199 233 235 203 166 161 160 169
160 177 175 166 162 160 148 145 132 118 133 107 75 44 15 8 350 344 343 338 337 334 331 328 328 329 329 329 333 303 253 135 188 117 81 317 317 314 306 306 310 270 325 54 102 100 89 98 102 156 117 80 95 275 124 27 267 111 230 229 80 91 198 117 224 82 63 318 154 151 113 211 153 163 186 183 216 223 233 232 228 223 228 203 154 160 164 176
183 182 177 172 169 160 154 151 138 138 116 102 74 46 12 10 5 349 351 337 332 331 328 326 328 328 330 329 329 256 200 197 158 252 49 319 318 312 312 310 329 231 211 135 119 79 98 92 139 41 46 116 62 102 47 49 6 141 23 18 69 138 120 78 155 47 350 339 167 132 169 195 94 156 216 199 223 236 224 224 218 243 265 147 159 163 167 180
186 194 182 176 168 161 159 146 129 153 130 96 63 44 33 8 7 354 347 342 329 326 325 327 328 330 328 329 283 248 228 204 71 101 340 332 314 312 322 349 8 38 131 79 109 107 192 100 192 123 104 111 10 134 72 356 342 155 105 184 215 359 47 68 141 154 206 164 171 181 180 88 185 201 196 235 233 243 55 51 351 318 28 52 125 153 176 185
195 190 187 177 172 171 157 148 163 156 118 94 80 57 35 10 2 353 341 338 330 321 325 326 328 330 329 294 220 236 212 31 219 82 3 337 327 299 5 207 150 218 234 184 183 189 53 116 101 102 100 81 32 83 55 302 242 296 128 150 144 264 12 53 72 125 208 206 181 65 70 207 158 229 109 234 240 252 96 65 8 352 5 168 179 183 189 191
183 173 187 175 185 178 158 148 157 155 137 87 54 24 34 5 353 344 338 332 331 322 320 326 329 334 339 216 215 114 142 90 64 60 346 337 327 305 207 258 116 138 72 37 110 143 161 108 143 185 61 122 139 134 122 144 29 135 128 190 108 230 12 336 104 173 200 197 39 199 186 206 217 282 52 247 245 245 217 153 240 3 170 188 215 200 201 196
143 186 186 187 185 174 182 171 168 157 177 122 352 338 13 8 342 339 333 333 329 327 320 326 335 338 266 266 188 150 138 49 9 349 339 344 339 353 158 222 1 122 116 104 336 110 204 134 116 235 154 127 207 123 221 211 120 353 74 128 134 110 76 103 134 172 213 137 195 183 202 46 351 319 253 250 246 109 50 218 161 197 212 212 217 214 203 202
151 189 195 191 182 192 186 182 193 183 150 179 278 312 314 356 336 331 331 331 326 325 323 332 341 330 281 189 81 209 111 299 323 331 340 300 293 270 69 44 268 115 139 9 74 87 229 165 166 155 108 69 170 79 303 294 76 90 109 88 96 41 124 115 232 124 96 255 199 243 230 192 57 260 266 100 16 350 193 208 141 222 231 224 224 221 216 215
171 182 185 182 188 198 196 188 190 190 186 184 263 282 323 321 330 324 328 323 324 316 325 335 341 316 225 262 199 177 278 325 12 326 323 287 271 34 36 331 320 92 101 79 67 360 35 119 123 125 311 120 148 70 1 74 120 66 116 125 92 72 60 70 90 67 298 157 233 274 269 320 266 161 247 100 60 6 226 213 216 223 235 234 230 231 226 229
184 185 188 189 192 188 189 190 194 200 202 213 273 299 287 313 316 323 320 319 313 313 322 337 346 329 263 144 208 59 327 339 342 339 6 286 56 7 304 314 281 183 180 102 60 23 318 123 164 327 137 203 119 144 81 157 54 106 206 172 88 140 196 80 206 57 293 161 187 175 251 234 183 237 225 98 103 81 255 248 228 235 238 239 240 233 229 228
187 188 190 190 189 193 190 188 194 202 207 233 261 304 310 309 317 314 309 312 315 316 323 338 337 265 233 161 68 295 321 338 52 33 80 73 122 109 65 25 56 42 8 110 104 50 105 125 231 92 40 139 118 339 117 163 63 184 86 358 172 195 225 103 134 103 226 121 167 211 267 224 208 229 183 143 116 120 259 248 232 233 235 238 232 236 239 228
189 192 195 192 195 191 195 202 200 205 212 231 263 285 316 318 310 306 303 299 316 317 328 335 332 265 253 84 88 4 301 36 223 137 41 299 305 43 54 46 51 57 28 83 75 79 31 222 89 101 58 55 116 196 144 81 316 194 55 260 335 228 185 109 11 63 228 107 210 226 256 252 153 212 85 64 251 238 259 259 244 235 237 236 233 238 239 235
184 183 198 198 198 197 196 210 214 219 233 243 274 288 313 316 309 301 302 305 307 329 333 338 261 221 180 86 291 65 128 219 174 37 355 290 121 96 57 62 55 52 61 75 104 76 74 245 118 80 77 289 113 166 95 104 61 47 210 183 155 240 124 137 117 203 238 114 260 207 260 259 270 272 63 23 138 192 251 263 260 247 241 237 238 241 244 242
183 183 193 201 199 194 201 217 220 224 230 249 266 291 306 305 306 307 308 300 324 359 255 224 64 326 141 192 117 124 209 191 154 354 354 302 337 110 107 96 110 72 92 60 63 199 42 60 61 26 116 172 173 138 121 152 151 46 280 129 189 234 321 289 123 333 352 51 195 228 265 65 240 93 50 52 119 178 261 270 268 256 249 243 240 239 246 250
182 183 194 204 193 185 209 218 226 227 239 249 271 287 292 292 305 309 307 312 335 227 232 110 120 288 234 70 140 217 166 88 343 232 1 39 269 137 136 81 63 83 71 126 56 199 19 64 282 209 11 79 14 156 163 214 221 200 35 257 44 247 141 237 109 129 6 269 207 221 251 247 264 224 191 162 155 175 261 265 266 260 248 243 245 244 245 244
184 187 196 200 194 188 201 210 215 228 238 255 268 286 293 298 332 273 195 194 248 216 178 167 219 221 189 322 206 158 38 140 90 64 5 1 32 96 68 116 227 96 100 106 25 36 338 96 274 118 128 141 169 186 207 209 203 182 172 214 206 217 239 283 276 100 219 145 253 223 243 260 257 263 267 266 167 237 260 262 266 268 259 248 239 244 244 243
186 190 196 195 192 194 200 210 219 232 249 277 285 294 267 277 205 257 71 1 179 139 178 178 180 195 161 157 76 96 211 45 261 257 131 136 45 100 82 64 88 144 119 200 67 270 28 105 223 145 198 175 196 197 217 106 110 149 183 184 218 240 195 222 214 88 255 239 246 236 250 264 264 259 260 260 205 237 259 267 265 259 254 251 248 246 243 239
186 189 192 191 189 190 199 207 222 235 238 325 297 202 157 156 143 131 110 229 268 25 358 61 73 69 92 31 129 27 277 218 155 23 41 334 195 122 56 357 79 62 147 203 108 68 316 181 197 196 216 202 191 194 79 100 88 93 92 154 197 269 274 176 171 84 224 271 252 250 253 265 272 271 273 274 247 236 250 256 257 253 247 242 243 244 243 240
186 186 189 188 186 184 197 203 212 222 124 342 274 217 180 173 146 180 173 250 84 178 29 26 14 28 55 103 131 169 134 77 9 110 126 42 298 168 151 170 148 173 60 353 101 74 241 220 221 231 26 71 146 114 116 96 64 142 136 215 211 195 272 91 115 117 174 233 277 197 258 264 270 274 270 269 262 263 257 252 250 251 246 246 246 247 242 244
187 187 183 183 181 182 193 202 204 122 94 301 249 229 324 223 358 348 127 204 187 107 110 88 219 102 5 294 19 311 357 106 119 140 122 219 161 205 153 201 170 199 116 141 128 153 197 210 229 125 97 85 98 135 150 166 140 121 232 146 282 252 272 281 74 147 183 194 264 278 268 262 262 266 267 259 253 253 254 249 256 265 265 255 250 246 249 243
185 187 183 175 176 180 187 197 186 151 199 204 209 261 233 12 327 277 249 88 176 76 187 172 207 203 114 355 218 242 180 168 175 190 188 212 124 277 137 176 186 113 143 184 189 171 218 230 229 123 133 116 83 133 143 118 149 177 158 179 237 55 331 280 129 94 160 220 305 319 291 272 263 251 250 252 250 260 258 260 262 257 259 257 255 255 250 249
184 182 182 174 169 178 185 181 161 166 224 220 273 230 358 303 246 270 251 278 328 214 200 212 257 139 183 160 176 165 199 169 129 185 119 185 168 123 171 178 128 154 186 188 206 198 199 79 37 154 161 155 142 157 164 178 205 213 213 219 237 194 223 239 329 311 169 252 356 279 272 261 223 242 249 253 258 256 264 263 262 253 241 249 262 270 255 259
181 180 177 174 171 168 178 145 175 218 164 210 263 242 202 206 312 346 254 119 195 226 52 296 168 237 156 55 136 192 173 65 253 28 151 195 129 152 164 44 169 199 178 167 4 257 244 112 127 131 151 126 127 169 194 182 229 186 227 226 235 238 251 238 328 332 290 251 117 317 319 281 208 244 253 275 276 252 243 248 257 254 247 243 246 252 257 240
181 177 173 171 170 167 145 162 215 177 164 205 223 176 163 171 294 321 86 73 260 128 44 213 150 200 123 134 114 149 80 229 42 93 129 294 355 132 105 149 320 203 157 160 200 253 243 105 175 156 157 158 183 192 181 199 219 225 213 209 235 240 333 238 230 286 267 277 109 298 326 288 170 208 187 252 252 262 236 232 256 259 252 237 240 247 246 242
179 176 170 166 170 150 150 233 130 147 155 242 194 176 173 177 244 293 202 50 280 172 163 24 212 185 1 152 155 118 198 197 113 104 142 354 191 3 202 152 120 32 107 137 15 224 138 163 120 122 130 161 171 203 196 194 184 213 63 143 155 185 210 223 215 224 276 344 263 170 208 289 288 206 212 240 255 270 282 274 267 259 257 250 248 250 246 240
178 174 169 171 165 170 253 121 142 173 233 55 97 132 143 166 133 249 240 273 258 100 140 215 262 344 317 135 303 202 3 88 144 199 358 301 269 118 300 173 184 173 170 162 221 54 185 170 180 158 174 168 203 173 127 187 191 59 90 192 136 165 169 156 204 241 307 351 286 137 167 223 267 111 1 205 244 255 259 262 267 271 263 234 264 263 262 258
177 174 171 170 171 165 130 154 174 202 153 119 113 120 99 111 249 121 145 230 100 80 353 110 283 96 53 128 105 60 141 1 337 68 307 48 22 256 202 185 200 119 90 232 239 108 348 253 203 188 168 203 93 9 205 173 189 170 126 90 90 88 75 145 138 184 254 332 268 145 189 240 279 160 160 11 245 261 256 257 261 269 278 284 262 245 227 276
180 174 172 168 160 132 155 85 213 342 115 126 130 117 125 173 160 170 100 244 120 196 55 87 198 172 158 155 179 45 153 37 43 127 64 159 91 47 27 331 122 134 193 76 349 39 356 248 318 197 219 91 114 53 19 16 53 132 167 105 87 72 85 92 60 71 267 242 251 154 193 214 281 174 179 171 205 209 224 251 268 272 282 273 243 253 255 240
181 176 172 165 175 164 131 209 204 149 138 134 135 132 153 49 172 145 209 208 43 90 94 163 156 122 155 157 181 318 65 63 158 158 134 166 118 58 156 91 66 99 85 298 239 119 134 68 173 313 49 111 106 87 40 49 131 156 148 140 138 141 147 182 154 148 237 260 136 293 198 215 233 219 227 222 60 250 232 222 246 263 271 273 114 146 140 260
190 178 172 174 162 148 172 206 164 143 144 154 139 141 179 130 312 195 224 78 251 173 175 163 77 173 169 79 60 167 156 80 178 186 163 176 165 172 194 186 152 172 237 207 211 82 231 208 91 89 266 152 149 100 72 84 253 216 148 158 195 212 103 225 178 218 200 245 90 57 124 300 238 244 326 276 247 244 226 234 245 265 272 248 170 170 103 348
197 186 175 178 156 185 194 88 124 141 135 166 124 128 170 140 213 211 231 158 238 112 180 63 154 170 163 154 175 134 3 176 155 208 58 323 183 208 213 225 186 184 224 179 166 149 226 77 207 155 114 242 194 161 140 170 203 195 185 176 186 225 217 256 199 331 324 276 79 182 155 253 306 276 227 247 237 232 219 220 244 258 263 269 138 185 206 261
182 191 184 182 176 180 166 149 150 142 141 158 148 86 40 190 230 199 216 209 4 354 67 106 110 57 164 177 172 161 166 272 163 182 196 167 196 200 216 236 199 214 79 94 194 184 227 233 212 145 222 157 211 222 175 159 168 200 93 181 205 184 185 215 192 237 252 291 114 204 154 235 157 122 281 239 251 250 236 244 243 255 259 269 265 234 245 258
125 176 202 186 181 185 154 153 148 153 148 152 157 177 188 216 232 211 214 180 85 74 65 114 126 137 191 341 332 236 354 169 197 130 188 161 204 214 187 204 210 184 109 189 214 142 222 270 40 172 1 144 192 172 94 96 87 162 328 16 294 229 75 258 338 294 354 327 271 164 228 234 220 8 269 232 285 261 231 256 259 262 260 253 262 240 222 230
99 21 179 200 204 167 161 154 147 149 144 159 156 181 203 195 219 198 226 100 114 133 130 96 92 151 172 169 357 205 316 21 174 151 219 219 305 207 210 204 193 193 167 201 118 187 63 234 68 317 72 196 159 56 182 192 209 168 143 214 205 2 194 80 107 87 129 253 255 169 268 247 278 246 220 238 224 228 223 247 243 247 251 256 254 256 227 228
114 99 154 207 184 152 165 155 149 145 142 181 172 197 203 216 236 119 164 172 161 130 152 148 201 170 175 200 175 190 202 108 165 183 203 136 272 223 206 225 174 182 214 176 204 261 192 161 10 132 200 245 41 296 67 22 20 105 212 199 93 96 3 186 242 148 216 243 274 123 254 282 295 294 97 203 237 242 230 237 237 241 246 248 251 252 244 233
157 192 260 216 181 153 154 162 151 152 158 177 200 208 176 217 357 124 64 113 117 151 170 199 173 186 184 172 191 176 193 202 165 195 206 165 243 168 177 206 186 204 202 217 236 167 182 242 139 339 6 51 14 209 118 50 354 292 41 139 176 193 206 190 211 237 212 234 270 244 265 262 220 247 167 179 189 223 229 232 234 242 239 232 237 240 227 224
229 221 233 211 149 159 154 157 161 151 160 180 202 224 224 224 80 57 343 358 160 161 201 192 185 205 169 190 135 159 161 189 161 192 173 187 230 176 192 166 206 202 192 177 207 119 191 228 196 333 164 47 224 185 204 171 106 44 102 186 6 316 247 161 206 314 219 269 32 274 205 275 177 221 201 231 193 213 220 211 225 229 227 214 220 231 230 221
179 225 246 148 159 152 151 155 162 167 165 187 201 228 53 210 219 314 301 222 183 189 207 192 193 153 186 191 154 161 216 217 164 190 205 165 214 135 193 178 180 159 179 186 200 116 200 105 253 97 300 181 186 201 212 161 175 176 196 193 167 207 335 334 10 209 227 237 249 297 294 262 233 165 174 204 191 201 215 217 219 225 230 218 213 212 216 218
205 251 239 120 151 145 146 167 184 176 176 297 250 224 183 203 202 241 244 20 320 357 328 207 175 200 159 149 220 194 169 189 192 192 199 205 197 225 196 179 132 136 145 172 206 185 190 161 221 128 181 211 222 118 259 193 186 182 184 195 185 158 179 179 223 88 250 224 233 220 252 273 110 139 176 189 193 196 211 216 204 204 223 217 201 204 201 196
172 217 211 146 152 152 154 186 178 162 155 185 197 180 206 203 9 228 230 293 13 317 343 324 322 214 153 195 170 168 158 185 193 204 220 217 201 229 89 178 161 143 148 175 200 194 190 149 187 189 208 205 92 29 334 333 356 7 287 230 188 191 179 184 213 182 271 236 9 274 354 269 143 156 187 166 196 191 195 185 226 198 195 240 244 206 200 191
206 216 15 164 159 158 153 205 174 170 168 243 35 176 245 237 220 183 188 210 232 163 311 260 201 189 227 182 154 161 175 197 179 205 204 227 242 207 150 182 151 164 152 86 50 21 79 180 196 240 63 357 111 142 66 28 36 290 235 31 187 201 197 202 231 161 186 141 227 220 214 264 104 330 25 30 354 344 53 221 214 260 208 190 205 227 215 185
213 218 158 187 174 174 178 205 189 179 200 130 204 232 192 237 195 204 211 197 194 160 196 192 310 265 283 126 150 182 177 218 203 204 230 208 254 95 155 171 159 175 169 185 181 160 168 216 206 203 223 182 206 201 214 105 197 229 206 183 208 209 200 53 74 167 233 199 216 184 232 263 79 353 12 153 239 226 202 218 210 209 269 251 201 203 207 216
176 40 288 196 195 192 196 194 196 178 195 171 172 208 193 219 227 223 208 206 199 224 203 235 213 120 209 126 192 196 195 209 218 206 223 204 228 60 309 177 185 189 202 183 198 161 182 170 178 201 207 216 208 204 207 182 192 197 222 208 197 199 185 141 221 202 230 232 215 219 245 256 143 232 170 197 190 265 233 188 242 238 205 236 219 205 212 206
186 218 173 216 244 209 231 345 104 195 186 169 184 205 185 210 196 201 194 229 189 220 219 68 20 134 221 122 162 190 217 236 232 112 203 224 220 216 212 191 197 203 205 133 152 154 193 201 194 196 213 224 229 235 56 113 129 188 206 186 189 205 200 199 211 216 220 234 221 217 232 259 260 173 197 207 222 217 213 198 204 226 235 215 216 222 210 217
188 218 164 195 147 257 224 212 209 193 207 172 199 164 197 208 185 157 182 222 195 205 210 217 194 186 199 216 209 219 211 227 249 244 213 234 43 246 50 198 239 230 158 105 155 113 86 213 209 212 218 230 241 229 178 145 179 199 197 190 194 189 196 197 206 223 222 230 248 234 231 246 261 248 206 207 211 237 254 229 229 236 241 220 206 212 219 243
223 217 206 246 209 196 216 226 213 211 198 178 211 167 192 198 198 202 172 219 115 191 206 49 217 218 209 207 208 224 191 219 201 228 240 226 249 186 82 136 212 220 184 202 185 185 179 217 217 219 232 233 237 239 165 195 185 192 201 189 192 196 192 200 218 227 217 206 232 243 226 231 251 258 234 231 182 209 213 219 226 233 286 232 223 211 209 217
246 339 269 336 200 268 224 48 192 207 205 179 204 192 191 198 205 204 181 180 194 216 193 225 217 215 216 213 209 219 217 208 227 223 226 213 205 134 193 333 243 71 196 189 80 332 173 239 221 212 225 238 245 243 161 203 217 226 217 205 194 188 196 205 216 221 220 228 240 253 252 243 245 254 241 249 194 204 206 223 233 225 231 227 219 229 223 217
199 202 213 94 314 83 103 111 159 180 221 192 196 201 199 198 208 195 198 164 182 210 186 217 230 213 214 216 215 221 218 218 217 214 219 222 233 185 219 198 133 11 60 356 347 309 188 229 206 83 222 241 245 245 155 211 208 239 206 231 222 211 206 207 213 219 225 240 244 244 249 261 255 262 295 261 176 193 227 222 221 225 240 236 229 223 226 229
8 241 3 146 208 191 169 140 154 178 194 195 219 223 214 204 213 183 200 190 185 181 180 209 224 218 204 210 214 229 230 222 227 232 209 190 227 201 189 275 113 131 139 162 160 299 161 283 36 129 228 245 243 235 203 132 191 226 237 227 223 215 219 215 225 218 216 225 234 249 260 254 258 211 256 260 170 196 214 221 227 236 230 229 231 226 227 230
195 251 47 153 233 192 213 145 182 162 218 200 183 197 197 214 222 177 211 218 224 215 192 205 215 209 209 202 217 223 226 220 233 219 156 180 168 107 195 155 149 150 171 189 118 158 186 206 215 185 221 238 243 222 148 148 164 253 239 230 226 227 202 184 223 226 223 221 229 229 237 245 257 257 252 233 185 212 220 211 226 231 233 225 226 223 225 229